Вернуться в каталог

FENGYUN 2A AKM

АктивенMEO
NORAD 25611·ROCKET BODY·🇨🇳 China

Запущен Jun 10, 1997 с Xichang Satellite Launch Center

Loading…

Ближайшие Пролёты (ближайшие 24 часа)

TLE

СвежийSource: Space-Track

Эпоха: Sep 14, 2026, 05:43 UTC

1 25611U 97029C   26257.23828380 -.00000261  00000-0  00000-0 0  9998
2 25611  13.8363 352.5643 0223504  82.8971 297.5798  1.02878357 49506

Отслеживайте FENGYUN 2A AKM в реальном времени с AllMySat

Download on the App Store